Regional Weather Roundup
Issued by NWS San Diego, CA

Home | Current Version | Previous Version | Text Only | Print | Product List | Glossary On
Versions: 1 2 3 4 5 6 7 8 9 10 11 12 13 14 15 16 17 18 19 20 21 22 23 24 25 26 27
000
ASUS46 KSGX 040511
RWRSGX

SAN DIEGO HOURLY WEATHER ROUNDUP
NATIONAL WEATHER SERVICE SAN DIEGO CA
1000 PM PDT TUE MAY 03 2016

NOTE: "FAIR" INDICATES FEW OR NO CLOUDS BELOW 12,000 FEET WITH NO
SIGNIFICANT WEATHER AND/OR OBSTRUCTIONS TO VISIBILITY.

CAZ042-043-060-061-PZZ750-775-040600-

GREATER SAN DIEGO AREA

CITY           SKY/WX    TMP DP  RH WIND       PRES   REMARKS
LINDBERGH FLD  CLOUDY    63  54  72 NW6       29.98R
POINT LOMA       N/A     58  58 100 NW6         N/A
NATIONAL CITY    N/A     63  57  80 CALM      29.99R
CHULA VISTA      N/A     62  58  87 W1        29.90R
IMPERIAL BEACH CLOUDY    64  56  75 SW5       29.98R
BROWN FIELD    CLOUDY    59  56  89 S3        29.97R
MIRAMAR MCAS   CLOUDY    63  54  72 CALM      29.97R
MONTGOMERY FLD CLOUDY    61  54  77 CALM      29.97R

$$

NORTH SAN DIEGO COUNTY

CITY           SKY/WX    TMP DP  RH WIND       PRES   REMARKS
CAMP PENDLETON MOCLDY    61  57  87 CALM      29.96R
OCEANSIDE AP   CLOUDY    61  55  81 W5        29.96R
OCEANSIDE HBR    N/A     61  58  88 SW6       29.99R
VISTA            N/A     59  55  84 CALM      29.94S
CARLSBAD       CLOUDY    60  55  83 CALM      29.96R
DEL MAR          N/A     60  56  85 CALM      30.00R
LA JOLLA SCRIP   N/A     60  56  88 W1        29.97R
FALLBROOK        N/A     58  57  97 CALM      29.95R
SAN MARCOS       N/A     58  51  75 CALM      29.94R
POWAY            N/A     59  54  84 CALM      29.97R

$$

EAST SAN DIEGO COUNTY

CITY           SKY/WX    TMP DP  RH WIND       PRES   REMARKS
RAMONA         CLEAR     53  50  89 W3        29.97R
SANTEE LAKES     N/A     59  55  86 CALM      29.96R
LA MESA          N/A     59  55  87 CALM      29.90R
JAMUL            N/A     57  54  89 CALM      29.96R
DESCANSO N       N/A     55  44  66 E9        29.83R
MT. LAGUNA OBS   N/A     56  28  33 E6        29.69
CAMPO            N/A     56  42  59 NE5       29.97R

$$

ORANGE COUNTY AND THE LOS ANGELES BASIN

CITY           SKY/WX    TMP DP  RH WIND       PRES   REMARKS
JOHN WAYNE AP  PTCLDY    59  55  87 CALM      29.96R
LAKE FOREST FR   N/A     56  51  82 CALM      29.85R
HUNTINGTON BCH   N/A     58  56  91 W2        29.98R
LOS ALAMITOS   FAIR      59  56  88 S3        29.96R
FULLERTON      CLEAR     62  55  77 CALM      29.95R
LONG BEACH     CLEAR     60  55  83 NW3       29.96R
L.A. AP        MOCLDY    57  53  86 W3        29.96R
L.A. DOWNTOWN  PTCLDY    58  54  86 CALM      29.96R

$$

THE INLAND EMPIRE

CITY           SKY/WX    TMP DP  RH WIND       PRES   REMARKS
CORONA         CLEAR     60  55  83 W7        29.96R
CHINO          CLEAR     61  53  75 W7        29.97R
ONTARIO        PTCLDY    63  54  72 SW7       29.95R
RIVERSIDE AP   CLEAR     65  53  65 NW3       29.96R
MORENO VALLEY    N/A     68  55  64 W2        28.06R
MARCH ARB      CLEAR     65  52  63 NW7       29.96R
HORSETHIEF CYN   N/A     64  46  53 NW3       29.96R
PERRIS           N/A     68  53  56 CALM      29.93R
HEMET EAST       N/A     85  34  15 CALM      29.81S
FRENCH VALLEY  FAIR      61  52  72 S3        29.96S
TEMECULA         N/A     62  56  80 S3        29.94R

$$

SAN BERNARDINO AND RIVERSIDE COUNTY MOUNTAINS

CITY           SKY/WX    TMP DP  RH WIND       PRES   REMARKS
BIG BEAR AP    CLEAR     43  36  75 CALM      30.18R
PINE COVE        N/A     52  38  58 N1        29.94R

$$

SOUTHERN DESERT INCLUDING THE COACHELLA VALLEY

CITY           SKY/WX    TMP DP  RH WIND       PRES   REMARKS
PALM SPRINGS   CLEAR     83  42  23 W5        29.86R
THOUSAND PALMS   N/A     83  41  22 N8        29.83R
PALM DESERT      N/A     83  44  24 CALM      31.09S
THERMAL        CLEAR     76  38  25 W9        29.80R
BLYTHE         PTCLDY    81  33  17 VRB6      29.83R
IMPERIAL AP    CLEAR     79  43  27 CALM      29.81R
EL CENTRO NAS  PTCLDY    76  33  21 VRB3      29.83R
YUMA AZ        CLEAR     80  40  23 W5        29.83
MEXICALI       CLEAR     82  32  16 NW2       29.83R

$$

UPPER DESERT

CITY           SKY/WX    TMP DP  RH WIND       PRES   REMARKS
VICTORVILLE AP CLEAR     70  36  28 CALM      29.99R
HESPERIA         N/A     67  38  34 W5        30.02R
PALMDALE       CLEAR     70  34  26 NW6       29.97R
LANCASTER      CLEAR     70  34  26 W12       29.97R
EDWARDS AFB    MOCLDY    71  36  27 SW8       29.93R
DAGGETT        CLEAR     73  31  21 NW3       29.92R
29 PALMS N     PTCLDY    73  22  14 S10       30.00R
NEEDLES        MOCLDY    81  36  19 W7        29.87R

$$

REGIONAL REPORTS

CITY           SKY/WX    TMP DP  RH WIND       PRES   REMARKS
SANTA BARBARA  CLEAR     56  54  93 E3        29.93R
SANDBERG       CLEAR     63  32  31 S13       30.07R
LAS VEGAS NV   CLOUDY    76  35  22 W7        29.91S
PHOENIX AZ     CLEAR     85  31  14 CALM      29.86R
TIJUANA        CLOUDY    59  54  82 CALM      30.00  FOG
ENSENADA NW      N/A     60  32  34 W2        29.96R

$$

OFFSHORE ISLANDS

CITY           SKY/WX    TMP DP  RH WIND       PRES   REMARKS
CATALINA ARPT  CLEAR     61  39  44 NW3       29.98R
SAN NICOLAS IS PTCLDY   N/A N/A N/A S6        29.96R

$$

MARINE AND OFFSHORE BUOY REPORTS

STATION/POSITION SKY/WX   TEMP    WIND        PRES    SWELL
                          AIR SEA DIR/SP/G            HT/PER/DIR
                          (F)     (DEG/KT/KT) (MB)    (FT/S/D)
TANNER BANKS               58 60  310/ 10/ 12 1014.8R   5/290/13
S CLEMENTE BASIN           58 61  290/  6/  8 1014.5R   5/250/13
SAN NICOLAS IS.               59                N/A     5/260/13
SO. S. ROSA ISLA           55 56  290/ 12/ 16 1013.9R   7/290/13
W. S. BARBARA CH           54 56  310/ 17/ 19 1012.7R   5/280/12
M. S. BARBARA CH           55 56  240/ 12/ 14 1014.1R
S. MONICA BASIN            57 60  190/  2/  4 1014.4R   3/200/14
OCEANSIDE OFFSHR              65                N/A     3/200/13
TORREY PINES OTR              65                N/A     3/240/13
LA JOLLA 1                 61 67  310/  5/  8 1014.2R
SAN DIEGO BAY                 68              1014.6R
POINT LOMA SOUTH              63                N/A     3/230/13

$$





USA.gov is the U.S. government's official web portal to all federal, state and local government web resources and services.